www.pogodaiklimat.ru

Погода и климат >> Архив погоды >> Россия >> Якутия >> Оймякон


АРХИВ ПОГОДЫ в Оймяконе

Время (UTC), дата Ветер
(напр.,м/с)
 
Видим.   Явления Облачность Т
(С)
Тd
(С)
f
(%)
Тe
(С)
Тes
(С)
Комфортность P
(гПа)
Po
(гПа)
Тmin
(С)
Tmax
(С)
R
(мм)
R24
(мм)
S
(см)
06 12.02 штиль 0 50 км дым 3/0
[Ci fib]
-43.0 -45.5 76 -43 -43 опасность
обморожения
1028.6 922.4
09 12.02 З 1 50 км дым 3/0
[Ci fib]
-48.2 -50.5 77 -54 -54 опасность
обморожения
1031.6 922.8 -42.9
12 12.02 штиль 0 50 км дым ясно -50.4 -53.0 74 -50 -50 опасность
обморожения
1033.4 923.3
15 12.02 штиль 0 50 км дым ясно -51.4 -54.4 70 -51 -51 опасность
обморожения
1034.5 923.7
18 12.02 штиль 0 50 км дым ясно -52.3 -54.4 78 -52 -52 опасность
обморожения
1035.4 924.1
21 12.02 штиль 0 50 км дым ясно -53.2 -56.3 69 -53 -53 опасность
обморожения
1035.9 924.4 -53.2 26
00 13.02 штиль 0 20 км ледяные иглы ясно -50.9 -53.0 78 -51 -50 опасность
обморожения
1035.7 925.1
03 13.02 СВ 1 50 км ясно -45.8 -48.5 74 -52 -50 опасность
обморожения
1032.6 924.6
06 13.02 С 1 50 км ясно -43.0 -45.5 76 -49 -48 опасность
обморожения
1030.9 924.4
09 13.02 З 1 50 км ясно -48.0 -50.5 75 -54 -54 опасность
обморожения
1034.1 925.0 -42.8
12 13.02 штиль 0 50 км ясно -51.0 -53.0 79 -51 -51 опасность
обморожения
1036.7 926.0
15 13.02 ЮЗ 1 50 км ясно -51.3 -54.4 69 -58 -58 опасность
обморожения
1036.6 925.6
18 13.02 штиль 0 50 км ясно -52.6 -54.4 81 -53 -53 опасность
обморожения
1036.6 925.2
21 13.02 штиль 0 50 км ясно -54.0 -56.3 76 -54 -54 опасность
обморожения
1037.1 924.9 -54.8 26
00 14.02 штиль 0 20 км дым ясно -51.6 -54.4 72 -52 -51 опасность
обморожения
1035.7 924.8
03 14.02 С 2 50 км дым ясно -46.6 -48.9 77 -57 -56 опасность
обморожения
1031.2 923.1
06 14.02 С 2 50 км ясно -44.2 -46.3 79 -54 -54 опасность
обморожения
1029.0 922.3
09 14.02 З 1 50 км ясно -49.3 -51.6 77 -56 -56 опасность
обморожения
1031.2 921.7 -44.2
12 14.02 З 1 50 км ясно -51.9 -54.4 74 -58 -58 опасность
обморожения
1031.7 921.1
15 14.02 З 1 50 км ледяные иглы ясно -52.3 -54.4 78 -59 -59 опасность
обморожения
1031.6 920.7
18 14.02 штиль 0 50 км ледяные иглы ясно -53.5 -56.3 71 -54 -54 опасность
обморожения
1030.7 919.4
21 14.02 штиль 0 50 км ледяные иглы ясно -54.5 -56.3 80 -55 -55 опасность
обморожения
1030.6 918.9 -54.5 26
00 15.02 штиль 0 50 км ледяные иглы ясно -51.9 -54.4 74 -52 -51 опасность
обморожения
1028.9 918.5 -54.8
03 15.02 штиль 0 50 км ясно -46.9 -49.4 75 -47 -45 опасность
обморожения
1024.3 916.7
06 15.02 штиль 0 50 км ясно -43.7 -46.1 77 -44 -44 опасность
обморожения
1020.9 915.2
09 15.02 штиль 0 50 км ясно -49.1 -51.6 75 -49 -49 опасность
обморожения
1022.7 914.4 -43.7
12 15.02 штиль 0 50 км ясно -51.3 -54.4 69 -51 -51 опасность
обморожения
1022.8 913.4
15 15.02 штиль 0 50 км ясно -53.6 -56.3 72 -54 -54 опасность
обморожения
1023.2 912.7
18 15.02 штиль 0 50 км ясно -54.0 -56.3 76 -54 -54 опасность
обморожения
1022.5 911.9
21 15.02 штиль 0 50 км ледяные иглы ясно -55.0 -56.3 85 -55 -55 опасность
обморожения
1022.8 911.6 -55.0 26
00 16.02 штиль 0 50 км ледяные иглы ясно -52.5 -54.4 80 -53 -52 опасность
обморожения
1020.8 911.1
03 16.02 С 1 50 км ледяные иглы ясно -46.1 -48.5 76 -52 -50 опасность
обморожения
1015.9 909.6
06 16.02 штиль 0 50 км ясно -43.0 -45.5 76 -43 -43 опасность
обморожения
1013.0 908.4
09 16.02 штиль 0 50 км ясно -48.8 -51.6 72 -49 -49 опасность
обморожения
1015.9 908.3 -43.0
12 16.02 штиль 0 50 км дым ясно -51.8 -54.4 73 -52 -52 опасность
обморожения
1018.2 909.0
15 16.02 штиль 0 50 км ледяные иглы ясно -53.3 -56.3 69 -53 -53 опасность
обморожения
1019.3 909.3
18 16.02 ЮЗ 1 50 км ледяные иглы ясно -54.1 -56.3 76 -61 -61 опасность
обморожения
1020.4 910.0
21 16.02 ЮЗ 1 20 км дым ясно -54.1 -56.3 76 -61 -61 опасность
обморожения
1021.6 911.1 -54.8 26
00 17.02 штиль 0 20 км дым ясно -52.3 -54.4 78 -52 -51 опасность
обморожения
1022.7 912.7
03 17.02 штиль 0 50 км дым 1/0
[Ci fib]
-45.1 -47.6 76 -45 -43 опасность
обморожения
1019.0 912.8
06 17.02 штиль 0 50 км дым 3/0
[Ci fib]
-42.7 -45.5 74 -43 -43 опасность
обморожения
1018.3 913.3
09 17.02 З 1 50 км дым 3/0
[Ci fib]
-48.4 -50.5 79 -55 -55 опасность
обморожения
1022.8 914.7 -42.6
12 17.02 штиль 0 50 км 8/0
[Ac trans Ci fib]
-47.5 -50.5 71 -48 -48 опасность
обморожения
1023.3 915.5
15 17.02 штиль 0 50 км 9/0
[Ac As]
-45.0 -47.6 75 -45 -45 опасность
обморожения
1022.4 915.9
18 17.02 СВ 1 50 км слаб. снег 10/0
[Ac und]
-42.1 -44.3 79 -48 -48 опасность
обморожения
1021.4 916.3
21 17.02 СВ 1 50 км {снег} 6/0
[Ac trans Ci fib]
-44.6 -46.3 83 -50 -50 опасность
обморожения
1023.3 916.9 -49.3 0.0 26
00 18.02 штиль 0 20 км слаб. снег 10/0
[Ac As]
-43.6 -45.6 80 -44 -43 опасность
обморожения
1023.2 917.3
03 18.02 С 1 50 км в посл. час снег 10/0
[Ac trans Cs]
-40.1 -42.1 81 -45 -44 опасность
обморожения
1022.1 917.7
06 18.02 С 2 50 км {снег} 10/0
[Ac trans Cs]
-39.4 -42.2 75 -48 -48 опасность
обморожения
1022.1 918.0
09 18.02 СВ 2 50 км слаб. снег 10/0
[Ac trans Cs]
-39.7 -41.6 82 -49 -49 опасность
обморожения
1024.1 919.7 -39.4 0.2
12 18.02 штиль 0 50 км слаб. снег 10/0
[Ac trans Cs]
-43.6 -45.6 80 -44 -44 опасность
обморожения
1027.6 921.2
15 18.02 З 1 50 км слаб. снег 10/0
[Ac trans Cs]
-44.9 -47.6 74 -51 -51 опасность
обморожения
1029.4 922.2
18 18.02 З 1 50 км слаб. снег 10/0
[Ac trans Cs]
-46.2 -48.5 77 -52 -52 опасность
обморожения
1031.1 923.3
21 18.02 штиль 0 50 км слаб. снег 10/0
[Cs]
-47.7 -50.5 73 -48 -48 опасность
обморожения
1033.0 924.3 -47.7 0.2 26
00 19.02 штиль 0 50 км слаб. снег 10/0
[Cs]
-44.2 -46.3 79 -44 -43 опасность
обморожения
1032.3 925.2
03 19.02 штиль 0 50 км слаб. снег 10/0
[Cs]
-39.2 -41.1 82 -39 -37 опасность
обморожения
1029.9 925.2

 

Местоположение метеостанции Оймякон (Якутия, Россия): широта 63.25 долгота 143.10 высота над уровнем моря 740 м.

В архиве по умолчанию представлена погода в Оймяконе за последнюю неделю. Архивные данные за месяц целиком и за предыдущие месяцы, начиная с января 2011 года, Вы можете получить, выбрав интересующий диапазон дат из раскрывающегося списка и нажав кнопку "Ввод!".


*Определитесь, кто Вы:
робот инопланетянин человек

Внимание! Время в таблицах - всемирное. Для получения местного времени необходимо прибавить поправку, которая равна 10 ч.

Смотрите также архив погоды в соседних городах и на ближайших метеорологических станциях:

Погода в Агаякане (Якутия, Россия) (71 км)
Погода в Юртах (Якутия, Россия) (110 км)
Погода в Делянкире (Якутия, Россия) (140 км)
Погода в Усть-Нере (Якутия, Россия) (142 км)
Погода в Восточной (Якутия, Россия) (175 км)
Погода в Сусумане (Магаданская область, Россия) (258 км)
Погода в Колымской (Магаданская область, Россия) (278 км)
Погода в Уеге (Хабаровский край, Россия) (282 км)
Погода в Теплом Ключе (Якутия, Россия) (322 км)
Погода в Ягодной (Магаданская область, Россия) (340 км)

Пояснения к столбцам:

Ветер - указаны скорость ветра в м/с - средняя за 10 мин, порывы в срок и между сроками (в фигурных скобках) и направление, откуда дует ветер: С - северный, СВ - северо-восточный, В - восточный, ЮВ - юго-восточный, Ю - южный, ЮЗ - юго-западный, З - западный, СЗ - северо-западный.
Видимость - горизонтальная дальность видимости в метрах или километрах. При видимости от 1 до 10 км при отсутствии осадков обычно наблюдается дымка, при ухудшении видимости до 1 км и менее - туман. В сухую погоду видимость может ухудшаться дымом, пылью или мглою.
Явления - указаны атмосферные явления, наблюдавшиеся в срок или в последний час перед сроком; фигурными скобками обозначены явления, наблюдавшиеся между сроками (за 1-3 часа до срока); квадратными скобками обозначены град или гололедные отложения с указанием их диаметра в мм.
Облачность - указаны через наклонную черту общая и нижняя облачность в баллах и высота нижней границы облаков в метрах; квадратными скобками обозначены формы облаков: Ci - перистые, Cs - перисто-слоистые, Cc - перисто-кучевые, Ac - высококучевые, As - высокослоистые, Sc - слоисто-кучевые, Ns - слоисто-дождевые, Cu - кучевые, Cb - кучево-дождевые. Подробнее классификацию облаков см. в Атласе облаков (PDF).
T - Температура воздуха - температура, измеренная на высоте 2 м над землей.
Td - Температура точки росы - температура, при понижении до которой содержащийся в воздухе водяной пар достигнет насыщения.
f - Относительная влажность воздуха - влажноcть воздуха, измеренная на высоте 2 м над землей.
Te - Эффективная температура - температура, которую ощущает одетый по сезону человек в тени. Характеристика душности погоды. При расчете учитывается влияние влажности воздуха и скорости ветра на теплоощущения человека.
Tes - Эффективная температура на солнце - температура, которую ощущает человек, с поправкой на солнечный нагрев. Характеристика знойности погоды. Зависит от высоты солнца над горизонтом, облачности и скорости ветра. Ночью, в пасмурную погоду, а также при ветре 12 м/с и более поправка равна нулю.
P - Атмосферное давление - приведенное к уровню моря атмосферное давление.
Po - Атмосферное давление - измеренное на уровне метеостанции атмосферное давление.
Tmin - Минимальная температура - минимум температуры воздуха на высоте 2 м над землей.
Tmax - Максимальная температура - максимум температуры воздуха на высоте 2 м над землей.
R - Количество осадков - Количество выпавших осадков за период времени, мм. При наведении курсора мыши на число - период времени, за который выпало указанное количество осадков.
R24 - Количество осадков - Количество выпавших осадков за 24 часа, мм.
S - Снежный покров - Высота снежного покрова, см. При наведении курсора мыши на число - состояние снежного покрова и степень покрытия местности в баллах.